Regional Weather Roundup
Issued by NWS Albany, NY

Home | Current Version | Previous Version | Text Only | Print | Product List | Glossary Off
Versions: 1 2 3 4 5 6 7 8 9 10 11 12 13 14 15 16 17 18 19 20 21 22 23 24 25 26 27 28 29 30 31 32 33 34 35 36 37 38 39 40 41 42 43 44 45 46 47 48 49 50

000
ASUS41 KALY 010710
RWRALY

NEW YORK STATE HOURLY WEATHER ROUNDUP
NATIONAL WEATHER SERVICE ALBANY NY
200 AM EST SUN MAR 01 2015

NOTE: "FAIR" INDICATES FEW OR NO CLOUDS BELOW 12,000 FEET WITH NO
SIGNIFICANT WEATHER AND/OR NO OBSTRUCTIONS TO VISIBILITY.

NYZ032-033-038>043-046>054-057>066-NYZ062>081-010800-
EAST


CITY           SKY/WX    TMP DP  RH WIND       PRES   REMARKS
ALBANY         PTCLDY     3  -2  79 CALM      30.72R
GLENS FALLS    CLEAR     -6 -13  71 CALM      30.70S
POUGHKEEPSIE   PTCLDY     2  -5  72 CALM      30.72R
NEWBURGH       CLEAR      3  -2  78 CALM      30.70R
MONTGOMERY     PTCLDY     0  -5  79 CALM      30.69R
WHITE PLAINS   CLEAR     10   2  69 NW6       30.68R WCI   0
ISLIP          CLEAR     14   4  64 CALM      30.70S
NEW YORK CITY  PTCLDY    26   4  38 NW5       30.72S WCI  20
CENTRAL PARK   CLEAR     26  -1  31 W3        30.73S
$$

NYZ005>009-017-018-044>046-055-056-010800-
CENTRAL


CITY           SKY/WX    TMP DP  RH WIND       PRES   REMARKS
FULTON         PTCLDY     6  -3  66 SE5       30.63F WCI  -3
SYRACUSE       PTCLDY    -1  -4  86 E6        30.63F WCI -13
ROME           MOCLDY    -4  -8  83 SE5       30.69S WCI -15
ELMIRA         MOCLDY     4  -3  73 CALM      30.59F
BINGHAMTON     MOCLDY    10  -3  55 SE5       30.54F WCI   2
MONTICELLO     PTCLDY     5  -2  72 CALM      30.61S
$$

NYZ026>034-041>043-010800-
NORTH


CITY           SKY/WX    TMP DP  RH WIND       PRES   REMARKS
WATERTOWN      PTCLDY   -10 -15  78 E6        30.64F WCI -23
FORT DRUM      NOT AVBL
MASSENA        CLEAR     -1  -5  82 CALM      30.67S
SARANAC LAKE   CLEAR    -15 -20  78 CALM      30.54R
PLATTSBURGH    CLEAR      2  -2  83 CALM      30.67S
$$

NYZ001>004-010>016-019>021-010800-
WEST


CITY           SKY/WX    TMP DP  RH WIND       PRES   REMARKS
NIAGARA FALLS  CLOUDY     6   0  76 CALM      30.55F
BUFFALO        CLOUDY    10   0  63 CALM      30.54S
DUNKIRK        CLOUDY     9   2  73 CALM      30.54R
JAMESTOWN      CLOUDY    16  -2  45 S7        30.45S WCI   6
WELLSVILLE     CLOUDY    14  -6  40 S8        30.45F WCI   3
ROCHESTER      MOCLDY     3  -3  76 CALM      30.57F
PENN YAN       MOCLDY     6  -1  73 SW3       30.56F
$$

             KEY
       WCI = WIND CHILL INDEX
       VSB = VISIBILITY
       HX  = HEAT INDEX
$$


USA.gov is the U.S. government's official web portal to all federal, state and local government web resources and services.